Regional Weather Roundup
Issued by NWS

Home | Current Version | Previous Version | Graphics & Text | Print | Product List | Glossary On
Versions: 1 2 3 4 5 6 7 8 9 10 11 12 13 14 15 16 17 18 19 20 21 22 23 24 25 26 27 28 29 30 31 32 33 34 35 36 37 38 39 40 41 42 43 44 45 46 47 48 49 50
000
ASUS43 KBIS 290020
RWRND

NORTH DAKOTA REGIONAL WEATHER ROUNDUP
NATIONAL WEATHER SERVICE BISMARCK ND
700 PM CDT SAT MAR 28 2015

NOTE: "FAIR" INDICATES FEW OR NO CLOUDS BELOW 12,000 FEET WITH NO
SIGNIFICANT WEATHER AND/OR OBSTRUCTIONS TO VISIBILITY.


NDZ001>003-009>011-017-290100-
NORTHWEST NORTH DAKOTA

CITY           SKY/WX    TMP DP  RH WIND       PRES   REMARKS
WILLISTON      CLOUDY    61  45  55 W33G46    29.51R
6HR MIN TEMP:  61; 6HR MAX TEMP:  79; 6HR PCP: TRACE;

MINOT          PTSUNNY   64  40  41 S22G37    29.38F
MINOT AFB      CLOUDY    65  45  48 S16G28    29.35F
$$

NDZ018>021-031>035-040>046-290100-
SOUTHWEST NORTH DAKOTA

CITY           SKY/WX    TMP DP  RH WIND       PRES   REMARKS
BISMARCK       CLOUDY    63  36  36 S18G29    29.51F
6HR MIN TEMP:  53; 6HR MAX TEMP:  68;

DICKINSON      LGT RAIN  57  47  69 NW32G43   29.54R
GARRISON         N/A     64  39  39 S18G25    29.41F
6HR MIN TEMP:  48; 6HR MAX TEMP:  67; 6HR PCP:  0.01;

HETTINGER ARPT PTSUNNY   73  31  21 S14       29.49F
$$

NDZ004>008-012>016-024-026-027-054-290100-
NORTHEAST NORTH DAKOTA

CITY           SKY/WX    TMP DP  RH WIND       PRES   REMARKS
GRAND FORKS    MOCLDY    49  32  52 S24G37    29.68F
GRND FRKS AFB  MOCLDY    48  33  54 S23G31    29.66F
DEVILS LAKE    CLOUDY    48  37  66 S22G28    29.54F
$$

NDZ022-023-025-028>030-036>039-047>053-290100-
SOUTHEAST NORTH DAKOTA

CITY           SKY/WX    TMP DP  RH WIND       PRES   REMARKS
FARGO          MOCLDY    52  29  41 S24G40    29.76F
6HR MIN TEMP:  46; 6HR MAX TEMP:  54; 6HR PCP: TRACE;

JAMESTOWN      PTCLDY    50  34  54 S24G31    29.63F
$$




USA.gov is the U.S. government's official web portal to all federal, state and local government web resources and services.